Weather History for KMIW - August, 2012

Change the Weather History Date:

Sunday, August 5, 2012

  Actual Average Record
Temperature  
Mean Temperature 68 °F 72 °F  
Max Temperature 78 °F 83 °F 91 °F (2001)
Min Temperature 57 °F 62 °F 52 °F (1997)
Degree Days  
Heating Degree Days 0 0  
Month to date heating degree days 0 0  
Since 1 June heating degree days 12 34  
Since 1 July heating degree days 1 6  
Cooling Degree Days 3 7  
Month to date cooling degree days 53 37  
Year to date cooling degree days 875 503  
Since 1 June cooling degree days 739 453  
Growing Degree Days 17 (Base 50)    
Moisture  
Dew Point 57 °F    
Average Humidity 74    
Maximum Humidity 100    
Minimum Humidity 47    
Precipitation  
Precipitation 0.00 in 0.13 in 0.70 in (2002)
Month to date precipitation 0.64 0.66  
Year to date precipitation 9.35  
Sea Level Pressure  
Sea Level Pressure 30.13 in    
Wind  
Wind Speed 6 mph (NW)    
Max Wind Speed 17 mph    
Max Gust Speed 22 mph    
Visibility 10 miles    
Events      
T = Trace of Precipitation, MM = Missing Value Source: NWS Daily Summary

Daily Weather History Graph

Daily Weather History Graph

Search for Another Location

Airport or City:

Trip Planner

Search our weather history database for the weather conditions in past years. The results will help you decide how hot, cold, wet, or windy it might be!

Date:

Astronomy

Aug. 05, 2012 Rise Set
Actual Time 6:09 AM CDT 8:25 PM CDT
Civil Twilight 5:38 AM CDT 8:56 PM CDT
Nautical Twilight 4:59 AM CDT 9:34 PM CDT
Astronomical Twilight 4:17 AM CDT 10:16 PM CDT
Moon 9:57 PM CDT (8/5) 10:04 AM CDT (8/5)
Length of Visible Light 15h 17m
Length of Day
14h 15m
Waning Gibbous, 86% of the Moon is Illuminated
Aug 5
Waning Gibbous
Aug 9
Last Quarter
Aug 17
New
Aug 24
First Quarter
Aug 31
Full

Hourly Weather History & Observations

Time (CDT) Temp. Dew Point Humidity Pressure Visibility Wind Dir Wind Speed Gust Speed Precip Events Conditions
12:53 AM 61.0 °F 59.0 °F 93% 30.01 in 10.0 mi SSW 3.5 mph - N/A   Clear
1:53 AM 62.1 °F 57.9 °F 86% 30.01 in 10.0 mi West 4.6 mph - N/A   Clear
2:53 AM 57.9 °F 57.0 °F 97% 30.03 in 10.0 mi WSW 4.6 mph - N/A   Clear
3:53 AM 57.9 °F 57.0 °F 97% 30.04 in 10.0 mi WNW 5.8 mph - 0.01 in   Clear
4:53 AM 57.9 °F 57.0 °F 97% 30.06 in 10.0 mi West 5.8 mph - N/A   Clear
5:53 AM 57.9 °F 57.0 °F 97% 30.10 in 10.0 mi WNW 6.9 mph - N/A   Clear
6:53 AM 60.1 °F 57.9 °F 93% 30.12 in 10.0 mi NW 9.2 mph - N/A   Clear
7:53 AM 63.0 °F 60.1 °F 90% 30.14 in 10.0 mi NW 10.4 mph - N/A   Clear
8:53 AM 64.9 °F 59.0 °F 81% 30.17 in 10.0 mi NNW 13.8 mph - N/A   Clear
9:53 AM 66.9 °F 59.0 °F 76% 30.18 in 10.0 mi North 13.8 mph - N/A   Clear
10:53 AM 70.0 °F 60.1 °F 71% 30.19 in 10.0 mi NW 5.8 mph - N/A   Clear
11:53 AM 72.0 °F 59.0 °F 64% 30.20 in 10.0 mi NW 11.5 mph - N/A   Clear
12:53 PM 73.0 °F 55.9 °F 55% 30.19 in 10.0 mi NW 11.5 mph - N/A   Clear
1:53 PM 73.9 °F 55.0 °F 52% 30.19 in 10.0 mi North 11.5 mph 17.3 mph N/A   Clear
2:53 PM 75.9 °F 55.9 °F 50% 30.18 in 10.0 mi North 10.4 mph - N/A   Clear
3:53 PM 75.9 °F 55.9 °F 50% 30.17 in 10.0 mi NNW 8.1 mph - N/A   Clear
4:53 PM 77.0 °F 55.0 °F 47% 30.15 in 10.0 mi North 4.6 mph - N/A   Clear
5:53 PM 77.0 °F 55.0 °F 47% 30.14 in 10.0 mi NNW 3.5 mph - N/A   Clear
6:53 PM 75.9 °F 55.0 °F 48% 30.13 in 10.0 mi North 5.8 mph - N/A   Clear
7:53 PM 73.9 °F 57.0 °F 55% 30.13 in 10.0 mi Calm Calm - N/A   Clear
8:53 PM 68.0 °F 59.0 °F 73% 30.14 in 10.0 mi Calm Calm - N/A   Clear
9:53 PM 64.0 °F 55.0 °F 73% 30.16 in 10.0 mi Calm Calm - N/A   Clear
10:53 PM 57.9 °F 57.0 °F 97% 30.18 in 10.0 mi NW 3.5 mph - N/A   Clear
11:53 PM 59.0 °F 55.9 °F 90% 30.18 in 10.0 mi Calm Calm - N/A   Clear